sat.trackr.live / text

‹ back to catalog

STARLINK-35429

NORAD 66590 · 2025-270C

PAYLOAD ACTIVE UNKNOWN

§ Identity

Operator
Country
US
Launch date
2025-11-22
Launch site
AFETR
Launch vehicle
Mass (kg)
RCS (m²)

Purposes: comms

External: N2YO · Heavens-Above · Gunter

§ Orbital elements

Epoch: 2026-09-20T02:22:43.050432Z

Period
94.27 min
Inclination
43.0014°
Eccentricity
0.0002758
Mean motion
15.27597950 rev/d
Perigee alt
481.1 km
Apogee alt
484.9 km
Semi-major
6,861.1 km
B*
6.4749e-4
RAAN
38.6607°
Arg perigee
265.7467°
Mean anomaly
94.3069°
Rev number
4,754

§ Raw data

STARLINK-354291 66590U 25270C   26263.09910938  .00017609  00000+0  64749-3 0  99952 66590  43.0014  38.6607 0002758 265.7467  94.3069 15.27597950 47540

JSON: /api/v1/satellites/66590 · /tle

For live sub-satellite position, see the globe view (requires WebGL).

§ Visibility from observer

Set your observer location to see the next 7 days of passes ≥ 10°. The values pass through the URL so the page stays shareable.

No JS? Fill the form by hand. The geolocation button needs JavaScript.